Location: ??????
(55.7522°N, 37.6156°E)
Time: 17:37:25
(UTC+00:00)

ATLAS 3B R/B - Pass Details

Date: 14 June 2025
Orbit: 935 x 1258 km, 63.8° (Epoch: 12 July)

Event Time Altitude Azimuth Distance (km) Brightness Sun altitude
Rises 21:12:52 0° 305° (NW) 4,200 6.4 -10.9°
Reaches altitude 10° 21:15:40 10° 307° (NW) 3,244 5.8 -10.9°
Maximum altitude 21:23:37 77° 34° (NE) 1,291 3.3 -10.9°
Drops below altitude 10° 21:31:23 10° 121° (ESE) 3,175 4.9 -10.9°
Sets 21:34:06 0° 123° (ESE) 4,106 5.4 -10.9°
